Location: Old Broadwell Mill Observatory
(33.8015°N, 85.8137°W)
Time: 04:24:10
(UTC-05:00)

Amateur Radio Satellites - All Passes

Search period start: 27 June 2016 03:54
Search period end: 28 June 2016 03:54
Location: Old Broadwell Mill Observatory, 33.8015°N, 85.8137°W

Satellite Date Start Highest point End Downlink Frequencies (MHz)
Time Altitude Azimuth
AIST 1 27 Jun 03:56:31 04:00:02 25° 78° (ENE) 04:03:32
O/OREOS (USA 219) 27 Jun 03:59:37 04:03:01 21° 298° (WNW) 04:06:25 437.305
GONETS M04 27 Jun 04:07:00 04:09:54 12° 64° (ENE) 04:12:49
KKS-1 27 Jun 04:12:46 04:17:02 48° 260° (W) 04:21:19 437.445
AIST 2 27 Jun 04:19:05 04:22:03 19° 110° (ESE) 04:25:01 435.215
STARS 27 Jun 04:50:06 04:54:06 36° 261° (W) 04:58:07 437.465
CUBESAT XI-V 27 Jun 05:12:12 05:16:52 65° 75° (ENE) 05:21:32 437.345
Cosmos 2499 27 Jun 05:12:54 05:19:45 25° 70° (ENE) 05:26:16 435.465 / 435.565
HORYU 2 27 Jun 05:32:50 05:37:20 77° 103° (ESE) 05:41:49 437.375
AIST 1 27 Jun 05:34:22 05:37:25 19° 272° (W) 05:40:28
AO-7 27 Jun 05:41:11 05:48:45 40° 296° (WNW) 05:56:18 29.400- 29.500
Cubesat XI-IV 27 Jun 05:44:41 05:46:45 12° 92° (E) 05:48:50 437.490
AO-85 27 Jun 05:51:06 05:52:26 11° 44° (NE) 05:53:44 145.980
STRAND 1 27 Jun 05:53:59 05:55:59 12° 63° (ENE) 05:58:00 437.568
AIST 2 27 Jun 05:56:42 06:00:19 29° 305° (NW) 06:03:57 435.215
GONETS M04 27 Jun 05:59:23 06:08:08 77° 83° (E) 06:16:53
LilacSat-2 27 Jun 06:04:37 06:06:59 16° 94° (E) 06:09:21 437.200
PHONESAT 2.4 27 Jun 06:04:57 06:07:15 19° 144° (SE) 06:09:31 2401.200-2431.200
CUTE-I 27 Jun 06:17:27 06:22:02 28° 97° (E) 06:26:35 437.470
BRITE-PL 27 Jun 06:48:49 06:52:59 89° 110° (ESE) 06:57:11 437.365/2234.400
NOAA 15 27 Jun 06:50:46 06:56:02 87° 96° (E) 07:01:17 137.62
DOVE 4 27 Jun 07:02:26 07:05:49 22° 96° (E) 07:09:20 437.250
NOAA 18 27 Jun 07:02:33 07:08:08 86° 104° (ESE) 07:13:41 137.9125
Cosmos 2499 27 Jun 07:04:51 07:13:25 61° 269° (W) 07:21:26 435.465 / 435.565
Cubesat XI-IV 27 Jun 07:21:52 07:27:13 67° 286° (WNW) 07:32:32 437.490
CUSAT 1 27 Jun 07:22:06 07:29:59 63° 95° (E) 07:36:56 437.405
PRISM 27 Jun 07:26:02 07:27:57 13° 67° (ENE) 07:29:53 437.425
AO-85 27 Jun 07:29:08 07:33:30 70° 244° (WSW) 07:37:29 145.980
DANDE 27 Jun 07:29:21 07:36:46 37° 89° (E) 07:44:02 436.750
STRAND 1 27 Jun 07:29:25 07:34:31 69° 258° (WSW) 07:39:40 437.568
GOMX 1 27 Jun 07:30:52 07:35:04 71° 283° (WNW) 07:39:25 467.674
LilacSat-2 27 Jun 07:37:57 07:41:17 28° 287° (WNW) 07:44:37 437.200
PHONESAT 2.4 27 Jun 07:40:37 07:43:39 60° 338° (NNW) 07:46:41 2401.200-2431.200
CANX-2 27 Jun 07:55:37 07:59:02 23° 96° (E) 08:02:25 2200.000
CUTE-I 27 Jun 07:57:20 08:01:59 30° 291° (WNW) 08:06:36 437.470
GONETS M04 27 Jun 07:58:35 08:03:53 18° 279° (W) 08:09:13
COMPASS 1 27 Jun 08:05:33 08:06:55 11° 92° (E) 08:08:18 437.405
CINEMA 3 27 Jun 08:09:30 08:13:44 36° 98° (E) 08:18:06 145.822/145.860
CUTE 1.7 + AOD 2 27 Jun 08:15:32 08:19:27 34° 98° (E) 08:23:19 437.475
CUBEBUG 2 27 Jun 08:19:26 08:21:36 13° 93° (E) 08:23:46 437.445
SEEDS 27 Jun 08:22:39 08:26:21 29° 97° (E) 08:30:00 437.485
ISS 27 Jun 08:24:40 08:27:47 45° 133° (SE) 08:30:55 145.825
DOVE 4 27 Jun 08:39:49 08:43:27 27° 288° (WNW) 08:47:14 437.250
HO-68 27 Jun 08:45:08 08:52:21 73° 104° (ESE) 08:59:32 435.675
NOAA 18 27 Jun 08:46:31 08:47:59 11° 299° (WNW) 08:49:27 137.9125
ZACube-1 27 Jun 08:52:49 08:55:00 13° 93° (E) 08:57:11 437.345
PRISM 27 Jun 08:58:55 09:02:52 42° 260° (W) 09:06:49 437.425
AUBIESAT-1 27 Jun 09:02:09 09:05:00 18° 101° (ESE) 09:07:59 437.475
Oscar 11 27 Jun 09:05:02 09:08:07 19° 95° (E) 09:11:11 145.826/435.025
AAUSAT CUBESAT 2 27 Jun 09:06:03 09:10:08 53° 100° (E) 09:14:10 437.432
CUSAT 1 27 Jun 09:06:14 09:12:13 23° 286° (WNW) 09:17:42 437.405
UWE-3 27 Jun 09:08:31 09:12:40 32° 97° (E) 09:16:50 435.000/436.395/437.385
FUNcube-1 27 Jun 09:10:14 09:13:36 20° 95° (E) 09:16:58 145.935
DANDE 27 Jun 09:11:31 09:19:24 45° 283° (WNW) 09:27:04 436.750
TIGRISAT 27 Jun 09:17:04 09:19:05 13° 67° (ENE) 09:21:08 435.000
PHONESAT 2.4 27 Jun 09:18:04 09:20:37 23° 355° (N) 09:23:10 2401.200-2431.200
UNISAT 6 27 Jun 09:21:01 09:23:37 16° 68° (ENE) 09:26:15 437.425
CANX-2 27 Jun 09:31:19 09:34:46 24° 289° (WNW) 09:38:11 2200.000
DELFI C3 27 Jun 09:32:11 09:34:33 15° 94° (E) 09:36:54 145.870
COMPASS 1 27 Jun 09:38:40 09:42:40 44° 286° (WNW) 09:46:37 437.405
M-CUBED/EXP-1 PRIME 27 Jun 09:39:06 09:43:01 68° 106° (ESE) 09:47:16 437.505
CINEMA 3 27 Jun 09:47:27 09:50:35 19° 291° (WNW) 09:53:48 145.822/145.860
CUTE 1.7 + AOD 2 27 Jun 09:52:18 09:54:58 16° 291° (WNW) 09:57:37 437.475
CUBEBUG 2 27 Jun 09:53:56 09:58:23 50° 285° (WNW) 10:02:56 437.445
SEEDS 27 Jun 09:58:51 10:01:49 19° 291° (WNW) 10:04:45 437.485
ANTELSAT 27 Jun 09:59:11 10:03:15 44° 74° (ENE) 10:07:23 437.575/2403.000
ISS 27 Jun 10:02:13 10:04:24 16° 328° (NNW) 10:06:34 145.825
HUMSAT D 27 Jun 10:18:04 10:21:43 26° 96° (E) 10:25:20 437.325/437.525
PCSat 27 Jun 10:22:51 10:23:20 10° 46° (NE) 10:23:49 145.827
ZACube-1 27 Jun 10:27:05 10:31:27 47° 286° (WNW) 10:35:50 437.345
HO-68 27 Jun 10:34:34 10:39:18 19° 300° (WNW) 10:44:01 435.675
AUBIESAT-1 27 Jun 10:35:59 10:39:25 29° 292° (WNW) 10:43:03 437.475
Oscar 11 27 Jun 10:40:27 10:44:14 30° 288° (WNW) 10:48:01 145.826/435.025
AAUSAT CUBESAT 2 27 Jun 10:44:32 10:45:05 10° 294° (WNW) 10:45:38 437.432
UWE-3 27 Jun 10:45:31 10:48:52 20° 290° (WNW) 10:52:16 435.000/436.395/437.385
FUNcube-1 27 Jun 10:45:49 10:49:49 31° 288° (WNW) 10:53:49 145.935
TIGRISAT 27 Jun 10:51:18 10:55:21 43° 261° (W) 10:59:29 435.000
PHONESAT 2.4 27 Jun 10:55:02 10:57:45 28° 11° (NNE) 11:00:29 2401.200-2431.200
UNISAT 6 27 Jun 10:56:05 11:00:00 35° 262° (W) 11:04:00 437.425
DELFI C3 27 Jun 11:05:55 11:09:26 30° 287° (WNW) 11:12:54 145.870
YUBILEINY 27 Jun 11:09:30 11:11:08 11° 76° (ENE) 11:12:46 435.215
JAS-2 27 Jun 11:13:46 11:18:59 20° 64° (ENE) 11:23:56 435.910
RS-15 27 Jun 11:16:17 11:26:57 52° 109° (ESE) 11:38:11 29.354- 29.394
BUGSAT 1 27 Jun 11:16:37 11:19:29 19° 70° (ENE) 11:22:21 437.445
ESTCUBE 1 27 Jun 11:20:55 11:24:27 22° 96° (E) 11:27:58 437.505/2401.250
Cosmos 2491 27 Jun 11:21:19 11:29:13 37° 76° (ENE) 11:37:03 435.465 / 435.565
NANOSAT C BR1 27 Jun 11:27:14 11:31:23 71° 76° (ENE) 11:35:33 145.865
QB50P1 27 Jun 11:29:20 11:33:31 80° 77° (ENE) 11:37:43 145.935-145.965
AISAT 27 Jun 11:31:29 11:34:30 18° 95° (E) 11:37:32 437.250
POPSAT HIP 1 27 Jun 11:32:25 11:36:35 86° 81° (E) 11:40:48 437.405
BEESAT 3 27 Jun 11:37:55 11:41:26 29° 56° (NE) 11:44:54 437.485
ANTELSAT 27 Jun 11:38:30 11:40:11 12° 268° (W) 11:41:52 437.575/2403.000
UKube-1 27 Jun 11:40:38 11:42:27 12° 93° (E) 11:44:17 .
QB50P2 27 Jun 11:44:25 11:48:33 61° 259° (W) 11:52:43 145.880/145.840
POLYITAN 1 27 Jun 11:47:03 11:51:10 59° 259° (W) 11:55:19 437.675
DUCHIFAT 1 27 Jun 11:48:34 11:52:41 66° 259° (W) 11:56:50 145.980
HUMSAT D 27 Jun 11:53:53 11:57:09 21° 290° (WNW) 12:00:24 437.325/437.525
DX 1 27 Jun 11:56:13 11:59:49 25° 97° (E) 12:03:25 434.975-435.025
PCSat 27 Jun 12:02:10 12:07:36 77° 64° (ENE) 12:13:00 145.827
50 SAT 27 Jun 12:08:13 12:11:51 55° 100° (E) 12:15:26 437.505
BEESAT 2 27 Jun 12:12:43 12:16:29 39° 58° (ENE) 12:20:13 435.950
CUBEBUG 1 27 Jun 12:21:45 12:26:05 80° 103° (ESE) 12:30:24 437.445
VELOX 1 27 Jun 12:26:01 12:30:25 80° 102° (ESE) 12:34:48 145.980
PHONESAT 2.4 27 Jun 12:31:29 12:34:34 75° 207° (SSW) 12:37:38 2401.200-2431.200
O/OREOS (USA 219) 27 Jun 12:33:17 12:37:14 30° 65° (ENE) 12:41:10 437.305
BUGSAT 1 27 Jun 12:51:20 12:54:41 25° 263° (W) 12:58:01 437.445
JAS-2 27 Jun 12:55:35 13:03:22 73° 258° (WSW) 13:10:37 435.910
ESTCUBE 1 27 Jun 12:57:25 13:01:10 27° 289° (WNW) 13:04:54 437.505/2401.250
YUBILEINY 27 Jun 12:57:41 13:06:20 77° 93° (E) 13:15:05 435.215
Oscar 19 27 Jun 13:04:47 13:09:45 52° 73° (ENE) 13:14:45 437.125/150
Cosmos 2504 27 Jun 13:05:06 13:11:03 23° 82° (E) 13:17:16 435.465 / 435.565
AISAT 27 Jun 13:07:07 13:11:00 31° 288° (WNW) 13:14:52 437.250
TISAT 1 27 Jun 13:09:04 13:12:24 22° 96° (E) 13:15:43 437.305
Gurwin Techsat 1B 27 Jun 13:11:35 13:15:50 25° 68° (ENE) 13:20:06 435.225
UKube-1 27 Jun 13:14:35 13:18:40 43° 287° (WNW) 13:22:45 .
BEESAT 3 27 Jun 13:16:12 13:18:51 17° 250° (WSW) 13:21:29 437.485
Cosmos 2491 27 Jun 13:18:02 13:25:57 41° 273° (W) 13:33:53 435.465 / 435.565
SPROUT 27 Jun 13:18:40 13:22:52 56° 285° (WNW) 13:27:04 437.525
ITAMSAT 1 27 Jun 13:27:55 13:29:42 12° 63° (ENE) 13:31:30 435.822/435.867
RS-15 27 Jun 13:28:50 13:39:31 44° 310° (NW) 13:50:49 29.354- 29.394
DX 1 27 Jun 13:32:30 13:35:51 22° 290° (WNW) 13:39:12 434.975-435.025
PCSat 27 Jun 13:49:06 13:50:15 11° 258° (WSW) 13:51:24 145.827
BEESAT 2 27 Jun 13:52:02 13:53:56 13° 252° (WSW) 13:55:50 435.950
O/OREOS (USA 219) 27 Jun 14:13:09 14:16:23 20° 259° (W) 14:19:36 437.305
AIST 2 27 Jun 14:21:00 14:25:04 51° 59° (ENE) 14:29:06 435.215
JUGNU 27 Jun 14:25:43 14:27:22 11° 164° (SSE) 14:29:02 437.505
SWISSCUBE 27 Jun 14:32:50 14:37:20 40° 99° (E) 14:41:49 437.505
AO-7 27 Jun 14:43:09 14:50:42 40° 64° (ENE) 14:58:17 29.400- 29.500
TISAT 1 27 Jun 14:44:35 14:47:55 23° 290° (WNW) 14:51:17 437.305
Oscar 19 27 Jun 14:46:26 14:49:19 15° 267° (W) 14:52:10 437.125/150
Gurwin Techsat 1B 27 Jun 14:50:48 14:55:34 34° 262° (W) 15:00:21 435.225
Cosmos 2504 27 Jun 14:55:47 15:03:35 60° 280° (W) 15:12:03 435.465 / 435.565
ISS 27 Jun 14:56:34 14:58:02 12° 29° (NNE) 14:59:31 145.825
BEESAT 27 Jun 14:58:04 15:02:52 70° 102° (ESE) 15:07:36 436.000
ITUPSAT 1 27 Jun 14:58:14 15:03:02 68° 102° (ESE) 15:07:48 437.325
YUBILEINY 27 Jun 14:58:16 15:03:58 19° 292° (WNW) 15:09:45 435.215
ITAMSAT 1 27 Jun 15:03:18 15:08:29 74° 258° (WSW) 15:13:43 435.822/435.867
MOZHAYETS 4 27 Jun 15:49:06 15:52:51 24° 96° (E) 15:56:33
RS-15 27 Jun 15:50:38 15:56:34 15° 341° (NNW) 16:02:39 29.354- 29.394
AIST 2 27 Jun 16:02:01 16:03:02 11° 253° (WSW) 16:04:04 435.215
KKS-1 27 Jun 16:07:26 16:11:40 41° 100° (E) 16:15:52 437.445
SO-50 27 Jun 16:07:43 16:12:36 75° 299° (WNW) 16:17:30 436.795
JUGNU 27 Jun 16:11:36 16:15:41 19° 173° (S) 16:19:46 437.505
SWISSCUBE 27 Jun 16:11:37 16:14:47 18° 293° (WNW) 16:17:57 437.505
AIST 1 27 Jun 16:22:19 16:25:17 18° 88° (E) 16:28:15
HORYU 2 27 Jun 16:26:58 16:31:07 42° 73° (ENE) 16:35:19 437.375
ISS 27 Jun 16:31:34 16:34:50 76° 225° (SW) 16:38:04 145.825
AO-7 27 Jun 16:35:42 16:43:20 40° 260° (W) 16:51:03 29.400- 29.500
BEESAT 27 Jun 16:39:01 16:40:00 11° 296° (WNW) 16:40:58 436.000
ITUPSAT 1 27 Jun 16:39:02 16:40:14 11° 296° (WNW) 16:41:26 437.325
STARS 27 Jun 16:42:51 16:47:09 52° 100° (E) 16:51:26 437.465
NOAA 18 27 Jun 16:48:17 16:50:31 13° 62° (ENE) 16:52:46 137.9125
Cubesat XI-IV 27 Jun 17:02:44 17:05:41 15° 64° (ENE) 17:08:38 437.490
GONETS M04 27 Jun 17:03:26 17:08:10 16° 80° (E) 17:12:54
CUBESAT XI-V 27 Jun 17:13:32 17:17:03 21° 95° (E) 17:20:32 437.345
SRMSAT 27 Jun 17:24:45 17:27:54 15° 167° (SSE) 17:31:04 437.500
MOZHAYETS 4 27 Jun 17:26:02 17:29:55 27° 289° (WNW) 17:33:46
CUTE-I 27 Jun 17:35:27 17:40:07 32° 70° (ENE) 17:44:49 437.470
Cosmos 2499 27 Jun 17:45:13 17:50:53 21° 81° (E) 17:56:46 435.465 / 435.565
KKS-1 27 Jun 17:45:20 17:47:50 15° 293° (WNW) 17:50:19 437.445
BRITE-PL 27 Jun 17:54:56 18:00:07 68° 76° (ENE) 18:04:55 437.365/2234.400
AIST 1 27 Jun 17:58:55 18:02:38 27° 282° (WNW) 18:06:21
JUGNU 27 Jun 17:59:45 18:04:04 20° 183° (S) 18:08:20 437.505
HORYU 2 27 Jun 18:05:37 18:07:50 14° 266° (W) 18:10:03 437.375
CUSAT 1 27 Jun 18:05:37 18:07:26 14° 69° (ENE) 18:09:05 437.405
DOVE 4 27 Jun 18:05:45 18:07:58 14° 69° (ENE) 18:10:10 437.250
NOAA 15 27 Jun 18:06:47 18:12:06 87° 261° (W) 18:17:25 137.62
RS-15 27 Jun 18:10:31 18:16:57 15° 21° (NNE) 18:23:24 29.354- 29.394
LilacSat-2 27 Jun 18:15:21 18:19:06 77° 77° (ENE) 18:22:53 437.200
STARS 27 Jun 18:21:23 18:23:01 12° 294° (WNW) 18:24:40 437.465
NOAA 18 27 Jun 18:25:02 18:30:28 74° 257° (WSW) 18:35:58 137.9125
GOMX 1 27 Jun 18:34:49 18:39:35 78° 77° (ENE) 18:44:03 467.674
Cubesat XI-IV 27 Jun 18:39:56 18:45:11 59° 258° (WSW) 18:50:30 437.490
CANX-2 27 Jun 18:47:04 18:47:58 11° 66° (ENE) 18:48:52 2200.000
CUBESAT XI-V 27 Jun 18:50:25 18:54:24 29° 289° (WNW) 18:58:21 437.345
GONETS M04 27 Jun 18:55:04 19:03:48 83° 276° (W) 19:12:33
CUTE 1.7 + AOD 2 27 Jun 19:05:29 19:08:03 16° 68° (ENE) 19:10:38 437.475
CINEMA 3 27 Jun 19:08:39 19:11:33 19° 70° (ENE) 19:14:28 145.822/145.860
HO-68 27 Jun 19:09:47 19:16:08 36° 66° (ENE) 19:22:31 435.675
SEEDS 27 Jun 19:12:08 19:14:06 13° 67° (ENE) 19:16:04 437.485
SRMSAT 27 Jun 19:12:09 19:16:24 20° 177° (S) 19:20:39 437.500
CUTE-I 27 Jun 19:15:41 19:20:06 26° 264° (W) 19:24:34 437.470
Cosmos 2499 27 Jun 19:34:55 19:43:00 69° 278° (W) 19:51:43 435.465 / 435.565
BRITE-PL 27 Jun 19:37:41 19:38:48 11° 267° (W) 19:39:54 437.365/2234.400
DOVE 4 27 Jun 19:41:12 19:45:22 40° 261° (W) 19:49:22 437.250
STRAND 1 27 Jun 19:43:54 19:48:59 56° 101° (E) 19:54:00 437.568
CUSAT 1 27 Jun 19:47:34 19:49:20 14° 274° (W) 19:50:58 437.405
JUGNU 27 Jun 19:49:18 19:52:23 14° 193° (SSW) 19:55:29 437.505
AAUSAT CUBESAT 2 27 Jun 19:52:59 19:56:10 21° 70° (ENE) 19:59:22 437.432
DANDE 27 Jun 19:58:54 20:03:22 44° 269° (W) 20:06:44 436.750
AO-85 27 Jun 20:02:45 20:03:31 10° 105° (ESE) 20:04:17 145.980
UWE-3 27 Jun 20:03:12 20:05:38 15° 68° (ENE) 20:08:05 435.000/436.395/437.385
CANX-2 27 Jun 20:19:06 20:23:17 55° 260° (W) 20:27:31 2200.000
RS-15 27 Jun 20:22:16 20:33:58 45° 51° (NE) 20:45:29 29.354- 29.394
M-CUBED/EXP-1 PRIME 27 Jun 20:23:09 20:26:13 36° 70° (ENE) 20:29:14 437.505
COMPASS 1 27 Jun 20:24:53 20:29:03 69° 77° (ENE) 20:33:16 437.405
CUTE 1.7 + AOD 2 27 Jun 20:39:38 20:43:33 35° 262° (W) 20:47:31 437.475
PRISM 27 Jun 20:44:23 20:48:03 32° 98° (E) 20:51:42 437.425
CINEMA 3 27 Jun 20:45:00 20:48:31 26° 263° (W) 20:52:02 145.822/145.860
SEEDS 27 Jun 20:45:20 20:49:22 43° 261° (W) 20:53:27 437.485
CUBEBUG 2 27 Jun 20:48:03 20:52:11 84° 74° (ENE) 20:56:24 437.445
HO-68 27 Jun 20:57:14 21:03:43 37° 261° (W) 21:10:15 435.675
GONETS M04 27 Jun 20:58:06 21:01:54 13° 295° (WNW) 21:05:41
SRMSAT 27 Jun 21:00:57 21:04:54 18° 188° (S) 21:08:52 437.500
HUMSAT D 27 Jun 21:07:42 21:09:03 11° 66° (ENE) 21:10:23 437.325/437.525
ZACube-1 27 Jun 21:18:41 21:22:50 82° 75° (ENE) 21:27:06 437.345
AUBIESAT-1 27 Jun 21:19:04 21:22:08 36° 256° (WSW) 21:25:13 437.475
STRAND 1 27 Jun 21:24:49 21:27:37 15° 295° (WNW) 21:30:25 437.568
AAUSAT CUBESAT 2 27 Jun 21:28:04 21:31:29 24° 264° (W) 21:34:56 437.432
Oscar 11 27 Jun 21:30:25 21:34:43 65° 259° (W) 21:39:03 145.826/435.025
Cosmos 2499 27 Jun 21:36:37 21:37:52 10° 298° (WNW) 21:39:08 435.465 / 435.565
FUNcube-1 27 Jun 21:36:52 21:40:59 63° 260° (W) 21:45:12 145.935
AO-85 27 Jun 21:37:53 21:43:20 86° 299° (WNW) 21:48:42 145.980
UWE-3 27 Jun 21:37:58 21:41:45 34° 262° (W) 21:45:38 435.000/436.395/437.385
DELFI C3 27 Jun 21:47:04 21:51:05 85° 75° (ENE) 21:55:08 145.870
ANTELSAT 27 Jun 21:55:59 21:58:25 14° 93° (E) 22:00:51 437.575/2403.000
ESTCUBE 1 27 Jun 22:17:52 22:20:12 14° 67° (ENE) 22:22:32 437.505/2401.250
PRISM 27 Jun 22:20:37 22:23:04 16° 292° (WNW) 22:25:30 437.425
AISAT 27 Jun 22:27:22 22:28:19 11° 65° (ENE) 22:29:17 437.250
RS-15 27 Jun 22:34:52 22:46:36 53° 251° (WSW) 22:58:07 29.354- 29.394
HUMSAT D 27 Jun 22:40:11 22:44:10 48° 260° (W) 22:48:15 437.325/437.525
50 SAT 27 Jun 22:43:39 22:45:42 14° 69° (ENE) 22:47:46 437.505
TIGRISAT 27 Jun 22:46:05 22:50:37 50° 100° (E) 22:55:10 435.000
DX 1 27 Jun 22:49:13 22:51:33 14° 67° (ENE) 22:53:53 434.975-435.025
UNISAT 6 27 Jun 22:50:50 22:55:28 61° 101° (E) 23:00:06 437.425
SRMSAT 27 Jun 22:52:15 22:53:21 10° 197° (SSW) 22:54:28 437.500
YUBILEINY 27 Jun 23:13:23 23:21:00 31° 74° (ENE) 23:28:33 435.215
CUBEBUG 1 27 Jun 23:13:48 23:17:51 39° 73° (ENE) 23:21:54 437.445
NANOSAT C BR1 27 Jun 23:16:48 23:19:18 15° 94° (E) 23:21:49 145.865
QB50P1 27 Jun 23:18:58 23:21:49 17° 95° (E) 23:24:39 145.935-145.965
VELOX 1 27 Jun 23:19:23 23:23:32 42° 73° (ENE) 23:27:41 145.980
POPSAT HIP 1 27 Jun 23:21:58 23:24:58 19° 95° (E) 23:27:57 437.405
AO-85 27 Jun 23:22:15 23:24:31 13° 314° (NW) 23:26:44 145.980
ANTELSAT 27 Jun 23:30:49 23:35:17 47° 286° (WNW) 23:39:47 437.575/2403.000
QB50P2 27 Jun 23:33:28 23:37:09 28° 97° (E) 23:40:49 145.880/145.840
POLYITAN 1 27 Jun 23:36:04 23:39:47 28° 97° (E) 23:43:30 437.675
DUCHIFAT 1 27 Jun 23:36:56 23:40:27 25° 97° (E) 23:43:58 145.980
ESTCUBE 1 27 Jun 23:52:12 23:56:34 46° 260° (W) 00:00:57 437.505/2401.250
TISAT 1 27 Jun 23:59:34 00:00:20 10° 66° (ENE) 00:01:07 437.305
AISAT 27 Jun 23:59:55 00:04:15 58° 259° (W) 00:08:36 437.250
UKube-1 28 Jun 00:04:40 00:08:59 90° 252° (WSW) 00:13:19 .
SPROUT 28 Jun 00:07:59 00:12:10 63° 76° (ENE) 00:16:23 437.525
JAS-2 28 Jun 00:12:52 00:15:49 15° 91° (E) 00:18:40 435.910
50 SAT 28 Jun 00:15:52 00:19:06 28° 262° (W) 00:22:21 437.505
Cosmos 2491 28 Jun 00:17:10 00:25:27 49° 89° (E) 00:33:43 435.465 / 435.565
DX 1 28 Jun 00:23:15 00:27:21 41° 261° (W) 00:31:28 434.975-435.025
TIGRISAT 28 Jun 00:24:28 00:26:50 14° 293° (WNW) 00:29:13 435.000
UNISAT 6 28 Jun 00:30:03 00:31:36 12° 294° (WNW) 00:33:10 437.425
BUGSAT 1 28 Jun 00:35:57 00:39:59 57° 100° (E) 00:44:04 437.445
SO-50 28 Jun 00:43:26 00:47:37 33° 55° (NE) 00:51:40 436.795
NANOSAT C BR1 28 Jun 00:51:14 00:55:06 35° 287° (WNW) 00:58:58 145.865
CUBEBUG 1 28 Jun 00:51:50 00:54:14 14° 266° (W) 00:56:38 437.445
Cosmos 2504 28 Jun 00:53:10 01:01:32 44° 77° (ENE) 01:09:29 435.465 / 435.565
QB50P1 28 Jun 00:53:50 00:57:36 31° 288° (WNW) 01:01:21 145.935-145.965
POPSAT HIP 1 28 Jun 00:57:02 01:00:43 29° 288° (WNW) 01:04:24 437.405
VELOX 1 28 Jun 00:57:53 01:00:08 14° 266° (W) 01:02:23 145.980
PCSat 28 Jun 00:58:46 01:02:10 17° 104° (ESE) 01:05:34 145.827
YUBILEINY 28 Jun 01:09:35 01:17:57 49° 271° (W) 01:26:18 435.215
QB50P2 28 Jun 01:09:39 01:12:45 20° 290° (WNW) 01:15:51 145.880/145.840
POLYITAN 1 28 Jun 01:12:18 01:15:22 19° 291° (WNW) 01:18:26 437.675
DUCHIFAT 1 28 Jun 01:12:45 01:15:59 21° 290° (WNW) 01:19:12 145.980
Oscar 19 28 Jun 01:20:49 01:24:59 25° 96° (E) 01:29:08 437.125/150
BEESAT 3 28 Jun 01:26:43 01:28:26 13° 108° (ESE) 01:30:09 437.485
TISAT 1 28 Jun 01:31:26 01:35:29 52° 260° (W) 01:39:33 437.305
Gurwin Techsat 1B 28 Jun 01:32:58 01:35:21 13° 92° (E) 01:37:43 435.225
SWISSCUBE 28 Jun 01:35:38 01:39:46 30° 70° (ENE) 01:43:56 437.505
JAS-2 28 Jun 01:55:58 02:01:20 50° 288° (WNW) 02:06:20 435.910
BEESAT 28 Jun 02:00:28 02:05:04 50° 73° (ENE) 02:09:43 436.000
ITUPSAT 1 28 Jun 02:00:59 02:05:35 50° 74° (ENE) 02:10:14 437.325
BEESAT 2 28 Jun 02:01:59 02:04:40 18° 110° (ESE) 02:07:22 435.950
Cosmos 2491 28 Jun 02:14:55 02:22:26 31° 286° (WNW) 02:29:58 435.465 / 435.565
SO-50 28 Jun 02:24:24 02:27:50 21° 250° (WSW) 02:31:11 436.795
PCSat 28 Jun 02:39:48 02:45:04 52° 299° (WNW) 02:50:22 145.827
O/OREOS (USA 219) 28 Jun 02:41:04 02:45:32 75° 109° (ESE) 02:50:01 437.305
Cosmos 2504 28 Jun 02:46:53 02:54:38 36° 274° (W) 03:02:04 435.465 / 435.565
MOZHAYETS 4 28 Jun 02:48:12 02:50:51 15° 67° (ENE) 02:53:30
AO-7 28 Jun 02:51:32 02:55:36 14° 92° (E) 02:59:39 29.400- 29.500
Oscar 19 28 Jun 02:59:46 03:04:15 31° 290° (WNW) 03:08:43 437.125/150
BEESAT 3 28 Jun 03:02:02 03:05:43 39° 303° (WNW) 03:09:26 437.485
KKS-1 28 Jun 03:02:09 03:05:41 24° 70° (ENE) 03:09:14 437.445
Gurwin Techsat 1B 28 Jun 03:10:23 03:15:38 62° 286° (WNW) 03:20:52 435.225
SWISSCUBE 28 Jun 03:13:46 03:17:31 23° 264° (W) 03:21:17 437.505
ITAMSAT 1 28 Jun 03:20:10 03:25:18 55° 101° (E) 03:30:23 435.822/435.867
STARS 28 Jun 03:35:59 03:39:41 28° 71° (ENE) 03:43:24 437.465
BEESAT 2 28 Jun 03:38:46 03:42:15 29° 304° (NW) 03:45:46 435.950
BEESAT 28 Jun 03:40:48 03:43:05 13° 267° (W) 03:45:22 436.000
ITUPSAT 1 28 Jun 03:41:18 03:43:39 14° 267° (W) 03:46:01 437.325
